This is the latest recevied weather packets stored in our database for station/object SV9TNF-2. If no packets are shown the sender has not sent any weather packets the latest 10 day(s).
| Time | Temp. | Humidity | Pressure | Rain* | Wind** | Luminosity | Snow |
|---|---|---|---|---|---|---|---|
| 1777696240 | 14.44° C | 67% | 1021.7 hPa | 0 mm | 12.96 m/s, 76° | - | - |
| 1777695940 | 15° C | 66% | 1021.7 hPa | 0 mm | 10.28 m/s, 71° | - | - |
| 1777695640 | 15° C | 69% | 1021 hPa | 0 mm | 10.73 m/s, 88° | - | - |
| 1777695340 | 15° C | 64% | 1021 hPa | 0 mm | 9.83 m/s, 82° | - | - |
| 1777695039 | 15° C | 70% | 1020.7 hPa | 0 mm | 12.52 m/s, 90° | - | - |
| 1777694739 | 15° C | 71% | 1020.7 hPa | 0 mm | 12.07 m/s, 94° | - | - |
| 1777694439 | 15° C | 72% | 1020.3 hPa | 0 mm | 11.62 m/s, 69° | - | - |
| 1777694139 | 15° C | 69% | 1020.3 hPa | 0 mm | 5.81 m/s, 90° | - | - |
| 1777693839 | 14.44° C | 65% | 1020.3 hPa | 0 mm | 7.15 m/s, 172° | - | - |
| 1777693539 | 14.44° C | 68% | 1020.3 hPa | 0 mm | 4.92 m/s, 72° | - | - |
| 1777693239 | 14.44° C | 70% | 1020.3 hPa | 0 mm | 10.28 m/s, 81° | - | - |
| 1777692939 | 14.44° C | 71% | 1020.7 hPa | 1.27 mm | 8.49 m/s, 61° | - | - |
| 1777692639 | 13.89° C | 76% | 1020.7 hPa | 2.54 mm | 12.07 m/s, 89° | - | - |
| 1777692338 | 13.33° C | 82% | 1020.7 hPa | 1.27 mm | 8.94 m/s, 99° | - | - |
| 1777692038 | 12.78° C | 84% | 1020.7 hPa | 1.27 mm | 1.79 m/s, 179° | - | - |
| 1777691738 | 13.33° C | 83% | 1020.7 hPa | 0 mm | 10.28 m/s, 109° | - | - |
| 1777691438 | 13.33° C | 82% | 1020.3 hPa | 1.27 mm | 3.13 m/s, 82° | - | - |
| 1777691138 | 13.33° C | 82% | 1020.3 hPa | 1.27 mm | 8.05 m/s, 72° | - | - |
| 1777690838 | 13.89° C | 78% | 1020.3 hPa | 0 mm | 10.73 m/s, 74° | - | - |
| 1777690538 | 14.44° C | 74% | 1020.3 hPa | 0 mm | 8.49 m/s, 90° | - | - |
| 1777690238 | 14.44° C | 74% | 1020.3 hPa | 0 mm | 7.15 m/s, 82° | - | - |
| 1777689938 | 14.44° C | 75% | 1020.3 hPa | 0 mm | 5.81 m/s, 100° | - | - |
| 1777689638 | 14.44° C | 74% | 1020.3 hPa | 0 mm | 4.92 m/s, 89° | - | - |
| 1777689337 | 13.89° C | 75% | 1020.7 hPa | 0 mm | 7.15 m/s, 91° | - | - |
| 1777689037 | 14.44° C | 76% | 1020.7 hPa | 0 mm | 6.26 m/s, 86° | - | - |
* Rain latest hour (hover to see other rain measurements)
** Current wind speed in m/s (hover to see current wind gust speed)